Weather History for KABE - July, 2013

Change the Weather History Date:

Wednesday, July 24, 2013

  Actual Average Record
Temperature  
Mean Temperature 70 °F 74 °F  
Max Temperature 81 °F 84 °F 95 °F (1999)
Min Temperature 59 °F 63 °F 51 °F (1947)
Degree Days  
Heating Degree Days 0 0  
Month to date heating degree days 0 0  
Since 1 June heating degree days 9 33  
Since 1 July heating degree days 0 0  
Cooling Degree Days 5 9  
Month to date cooling degree days 347 208  
Year to date cooling degree days 610 408  
Since 1 June cooling degree days 538 363  
Growing Degree Days 21 (Base 50)    
Moisture  
Dew Point 60 °F    
Average Humidity 69    
Maximum Humidity 90    
Minimum Humidity 48    
Precipitation  
Precipitation 0.00 in 0.16 in 3.37 in (1997)
Month to date precipitation 3.42 3.84  
Year to date precipitation 23.80 24.97  
Snow  
Snow 0.00 in 0.00 in 0.00 in (2002)
Month to date snowfall 0.0 0.0  
Since 1 June snowfall 0.0 0.0  
Since 1 July snowfall 0.0 0.0  
Snow Depth 0.00 in    
Sea Level Pressure  
Sea Level Pressure 29.79 in    
Wind  
Wind Speed 8 mph (NW)    
Max Wind Speed 16 mph    
Max Gust Speed 21 mph    
Visibility 10 miles    
Events      
T = Trace of Precipitation, MM = Missing Value Source: NWS Daily Summary

Daily Weather History Graph

Daily Weather History Graph

Search for Another Location

Airport or City:

Trip Planner

Search our weather history database for the weather conditions in past years. The results will help you decide how hot, cold, wet, or windy it might be!

Date:

Astronomy

Jul. 24, 2013 Rise Set
Actual Time 5:51 AM EDT 8:24 PM EDT
Civil Twilight 5:19 AM EDT 8:56 PM EDT
Nautical Twilight 4:40 AM EDT 9:35 PM EDT
Astronomical Twilight 3:56 AM EDT 10:18 PM EDT
Moon 9:27 PM EDT (7/24) 8:09 AM EDT (7/24)
Length of Visible Light 15h 36m
Length of Day
14h 33m
Waning Gibbous, 95% of the Moon is Illuminated
Jul 24
Waning Gibbous
Jul 29
Last Quarter
Aug 6
New
Aug 14
First Quarter
Aug 20
Full

Hourly Weather History & Observations

Time (EDT) Temp. Heat Index Dew Point Humidity Pressure Visibility Wind Dir Wind Speed Gust Speed Precip Events Conditions
12:51 AM 69.1 °F - 66.9 °F 93% 29.66 in 10.0 mi SW 5.8 mph - N/A   Clear
1:51 AM 70.0 °F - 66.0 °F 87% 29.66 in 10.0 mi WSW 4.6 mph - N/A   Clear
2:51 AM 69.1 °F - 64.9 °F 87% 29.67 in 10.0 mi WSW 4.6 mph - N/A   Clear
3:51 AM 70.0 °F - 63.0 °F 78% 29.66 in 10.0 mi WSW 3.5 mph - N/A   Clear
4:51 AM 68.0 °F - 63.0 °F 84% 29.67 in 10.0 mi WSW 8.1 mph - N/A   Clear
5:51 AM 70.0 °F - 62.1 °F 76% 29.69 in 10.0 mi NW 3.5 mph - N/A   Clear
6:51 AM 69.1 °F - 63.0 °F 81% 29.70 in 10.0 mi WSW 3.5 mph - N/A   Clear
7:51 AM 73.0 °F - 63.0 °F 71% 29.72 in 10.0 mi WNW 3.5 mph - N/A   Clear
8:51 AM 73.9 °F - 64.0 °F 71% 29.75 in 10.0 mi NW 6.9 mph - N/A   Mostly Cloudy
9:47 AM 75.2 °F - 64.4 °F 69% 29.77 in 10.0 mi NNW 9.2 mph - N/A   Mostly Cloudy
9:51 AM 75.0 °F - 64.9 °F 71% 29.76 in 10.0 mi NNW 12.7 mph - N/A   Mostly Cloudy
10:51 AM 73.0 °F - 62.1 °F 68% 29.80 in 10.0 mi North 11.5 mph - N/A   Mostly Cloudy
11:13 AM 73.4 °F - 62.6 °F 69% 29.80 in 10.0 mi WNW 10.4 mph - N/A   Scattered Clouds
11:51 AM 75.0 °F - 62.1 °F 64% 29.80 in 10.0 mi NW 8.1 mph - N/A   Partly Cloudy
12:51 PM 77.0 °F - 60.1 °F 56% 29.81 in 10.0 mi NNW 11.5 mph - N/A   Mostly Cloudy
1:51 PM 75.9 °F - 60.1 °F 58% 29.81 in 10.0 mi NNW 5.8 mph - N/A   Overcast
2:51 PM 77.0 °F - 59.0 °F 54% 29.82 in 10.0 mi NW 6.9 mph - N/A   Overcast
3:51 PM 79.0 °F - 59.0 °F 50% 29.81 in 10.0 mi Variable 6.9 mph - N/A   Clear
4:51 PM 80.1 °F 80.7 °F 59.0 °F 48% 29.81 in 10.0 mi North 9.2 mph - N/A   Mostly Cloudy
5:51 PM 78.1 °F - 57.0 °F 48% 29.83 in 10.0 mi North 12.7 mph 18.4 mph N/A   Mostly Cloudy
6:51 PM 75.9 °F - 55.9 °F 50% 29.84 in 10.0 mi North 15.0 mph 18.4 mph N/A   Overcast
7:51 PM 71.1 °F - 53.1 °F 53% 29.88 in 10.0 mi North 12.7 mph - N/A   Partly Cloudy
8:51 PM 68.0 °F - 52.0 °F 56% 29.91 in 10.0 mi North 8.1 mph - N/A   Mostly Cloudy
9:51 PM 63.0 °F - 53.1 °F 70% 29.95 in 10.0 mi North 5.8 mph - N/A   Clear
10:51 PM 61.0 °F - 52.0 °F 72% 29.97 in 10.0 mi North 3.5 mph - N/A   Clear
11:51 PM 61.0 °F - 51.1 °F 70% 29.97 in 10.0 mi NNE 5.8 mph - N/A   Clear